Temperature
22 22 21 21 20 20 20 20 19 19 18 18 18 18 18 17 17 17 16 16 16 16 16 16 16 15 15 15 15 15 15 14 14 14 13 13 13 13 13 13 13 13 12
22 22 21 21 21 20 20 20 19 19 18 18 18 18 17 17 17 16 16 16 16 16 16 16 15 15 15 15 15 15 14 14 14 14 13 13 13 13 12 12 12 12 12
22 22 21 21 21 20 20 20 19 19 19 18 18 18 17 17 17 16 16 16 16 16 15 15 15 15 15 15 15 15 14 14 14 14 13 13 13 12 12 12 12 12 12
22 22 21 21 21 20 20 20 19 19 19 18 18 18 17 17 17 16 16 16 16 15 15 15 15 15 15 15 15 14 14 14 14 13 13 13 12 12 12 12 12 11 11
22 22 22 21 21 20 20 20 19 19 19 18 18 18 17 17 17 16 16 16 15 15 15 15 15 15 15 15 14 14 14 14 13 13 13 13 12 12 12 12 11 11 11
22 22 21 21 21 20 20 20 19 19 18 18 18 18 17 17 17 16 16 16 15 15 15 15 15 15 14 14 14 14 14 14 13 13 13 13 13 12 12 12 11 11 11
22 21 21 21 20 20 20 19 19 19 18 18 18 18 17 17 17 16 16 15 15 15 15 15 15 14 14 14 14 14 14 14 13 13 13 13 13 12 12 12 11 11 11
22 21 21 20 20 20 19 19 19 18 18 18 18 17 17 17 16 16 16 15 15 15 15 15 14 14 14 14 14 14 14 14 13 13 13 13 13 12 12 12 11 11 11
22 21 21 20 20 20 19 19 19 18 18 18 18 17 17 17 16 16 15 15 15 15 15 14 14 14 14 14 14 14 14 13 13 13 13 13 12 12 12 11 11 11 11
21 21 21 20 20 20 19 19 18 18 18 17 17 17 17 16 16 16 15 15 15 15 14 14 14 14 14 13 13 13 13 13 13 13 12 12 12 12 11 11 11 11 11
21 20 20 20 19 19 19 18 18 18 17 17 17 17 16 16 16 16 15 15 15 14 14 14 14 14 13 13 13 13 13 13 13 12 12 12 12 11 11 11 11 11 11
20 20 19 19 19 19 18 18 18 17 17 17 17 16 16 16 16 15 15 15 14 14 14 14 14 13 13 13 13 13 13 12 12 12 12 12 12 11 11 11 11 11 10
20 19 19 19 18 18 18 18 17 17 17 16 16 16 16 16 15 15 15 15 14 14 14 14 13 13 13 13 13 12 12 12 12 12 12 12 12 11 11 11 11 10 10
19 19 18 18 18 18 17 17 17 17 16 16 16 16 16 16 15 15 15 15 14 14 14 14 13 13 13 13 12 12 12 12 12 12 12 12 11 11 11 11 10 10 10
19 18 18 18 17 17 17 17 17 17 16 16 16 15 15 15 15 15 15 15 14 14 13 13 13 13 13 13 13 12 12 12 12 12 12 11 11 11 11 11 10 10 10
18 18 17 17 16 16 16 16 16 16 15 15 15 15 15 15 15 14 14 14 14 13 13 13 13 13 13 13 12 12 12 12 12 11 11 11 11 11 11 11 10 10 10
17 17 17 16 16 16 15 15 15 15 15 15 15 15 14 14 14 14 14 14 13 13 13 13 13 13 12 12 12 12 12 12 11 11 11 11 11 11 11 10 10 10 10
16 16 16 16 15 15 15 15 14 14 14 14 14 14 14 14 14 13 13 13 13 12 12 12 12 12 12 12 12 12 12 11 11 11 11 11 11 11 10 10 10 10 10
15 15 15 15 15 15 14 14 14 14 14 14 14 14 14 13 13 13 13 12 12 12 12 12 12 12 12 12 12 12 11 11 11 11 11 11 11 10 10 10 10 10 9
14 14 14 14 14 14 14 14 14 14 14 13 13 13 13 13 12 12 12 12 12 12 12 12 12 12 12 12 12 12 11 11 11 11 11 11 10 10 10 10 9 9 9
13 13 14 14 14 14 13 13 13 13 13 13 13 13 13 13 13 12 12 12 12 12 12 12 12 12 12 11 11 11 11 11 11 11 11 10 10 10 10 10 9 9 9
13 13 13 13 13 13 13 13 13 13 12 12 12 12 12 12 12 12 12 12 12 12 12 12 12 11 11 11 11 11 11 11 11 11 10 10 10 10 10 9 9 9 9
12 12 12 12 12 13 13 12 12 12 12 12 12 12 12 12 12 12 12 11 11 11 11 11 11 11 11 11 11 11 11 11 11 10 10 10 10 9 9 9 9 9 8
12 12 12 12 12 12 12 12 12 12 12 12 12 11 11 11 11 11 11 11 11 11 11 11 11 11 11 11 11 11 10 10 10 10 10 10 9 9 9 9 8 8 8
11 11 11 11 11 11 11 11 11 11 11 11 11 11 11 11 11 11 11 11 11 11 11 10 10 10 10 10 10 10 10 10 10 9 9 9 9 9 8 8 8 8 8
11 11 11 11 11 11 11 11 11 11 11 11 11 11 11 11 11 11 10 10 10 10 10 10 10 10 10 10 10 10 9 9 9 9 8 8 8 8 8 8 7 7 7
Wind_Speed
7 7 6 6 6 5 5 5 5 4 4 4 4 3 3 2 2 1 1 1 1 0 0 1 1 1 1 1 2 2 2 3 3 1 1 2 2 4 5 7 7 7 8
7 6 6 6 6 6 5 5 5 5 4 5 4 4 3 3 2 2 1 1 1 1 0 1 0 1 1 1 2 2 3 3 4 4 2 2 2 3 4 5 5 6 6
7 7 6 6 6 6 6 5 5 5 5 4 4 4 3 3 2 2 2 2 1 1 1 1 1 2 2 2 2 3 3 3 3 5 3 2 2 3 4 4 4 4 5
7 7 8 7 7 7 6 6 6 6 5 5 4 4 4 3 3 2 2 2 1 1 1 1 1 2 2 3 3 3 4 5 5 6 5 3 3 3 3 3 2 2 2
8 8 7 6 6 6 6 6 6 6 6 5 5 4 4 3 3 3 3 3 2 1 0 1 1 2 3 3 3 5 6 5 5 5 5 3 3 3 3 3 3 2 1
8 8 6 6 6 6 6 6 6 5 5 5 5 5 4 4 5 6 4 3 3 2 1 1 1 1 3 3 5 7 8 8 7 6 5 5 5 4 4 4 4 3 1
7 7 6 6 6 6 6 5 6 6 5 5 5 5 5 4 6 6 6 4 3 2 2 1 1 1 2 3 4 6 6 7 8 7 7 7 7 7 7 6 4 3 2
7 7 7 7 7 6 6 6 6 5 5 4 5 5 4 5 6 7 6 4 3 2 2 2 2 2 2 4 4 4 3 4 5 6 6 7 7 8 8 7 6 3 2
7 7 7 7 7 7 7 6 5 5 5 4 4 5 5 4 6 6 6 3 2 2 2 2 2 3 3 5 5 4 3 2 2 4 5 6 8 11 11 7 6 4 2
7 7 7 7 8 8 7 6 5 5 5 5 4 5 5 5 6 7 7 4 3 3 2 2 3 4 4 6 6 5 5 3 3 3 4 4 6 9 12 8 8 6 3
4 5 6 6 7 7 6 5 5 5 4 4 4 4 4 5 6 7 7 5 5 4 3 3 3 4 5 6 6 5 6 5 4 4 4 3 3 4 6 7 7 6 5
3 4 5 6 5 5 5 5 5 5 5 4 4 3 3 4 5 6 8 7 6 5 5 4 4 6 6 6 5 5 6 5 3 4 3 4 4 5 5 6 8 8 6
4 4 4 5 5 5 6 6 5 5 5 4 4 4 4 3 4 6 8 8 7 5 4 5 5 5 5 5 5 6 6 4 4 4 5 5 5 4 4 4 5 5 4
3 3 3 4 5 5 5 5 5 6 6 6 5 6 4 4 4 4 4 5 5 5 4 3 4 5 4 4 4 4 4 5 6 6 5 5 3 4 4 4 4 4 4
2 2 3 4 5 5 4 4 6 6 7 7 7 6 6 6 7 7 6 5 5 5 4 2 2 2 3 3 3 4 4 5 5 5 5 5 4 5 5 5 5 5 5
2 2 2 3 4 4 4 3 4 5 6 8 8 8 6 7 7 7 7 7 7 7 5 3 4 5 6 6 5 5 5 6 6 6 6 6 6 6 6 5 5 6 6
3 2 2 2 3 4 4 5 4 3 3 5 7 7 7 6 6 7 7 6 6 8 5 5 5 6 6 6 6 7 6 6 6 6 7 7 7 7 6 6 6 6 6
1 2 2 2 3 4 4 4 4 4 4 3 3 5 6 5 6 6 6 5 3 5 6 6 6 6 6 6 6 6 6 6 6 6 7 7 7 7 7 7 7 8 7
1 2 2 2 2 3 3 4 4 5 4 3 2 2 4 4 4 5 7 5 5 6 6 7 7 7 6 7 6 6 6 6 6 6 6 6 6 6 7 7 7 9 8
1 2 2 2 2 2 3 3 4 4 4 4 4 3 3 3 3 3 4 5 6 6 6 7 7 6 6 7 7 6 6 6 6 6 6 6 6 6 7 8 7 7 7
2 2 2 2 2 3 3 3 3 4 4 4 4 4 6 5 5 5 5 6 6 7 6 6 6 6 6 6 6 6 7 6 6 6 6 6 6 6 6 6 6 6 6
2 2 2 2 2 3 3 3 3 3 4 4 3 3 6 4 4 4 5 5 6 6 6 6 6 6 6 6 6 6 7 7 6 6 6 6 6 6 6 6 6 6 5
1 1 1 1 2 2 2 2 2 3 3 3 3 2 3 4 4 4 5 5 5 5 5 5 5 5 5 5 6 6 6 7 6 6 6 6 6 6 6 6 7 7 7
1 1 1 1 1 1 2 2 2 2 3 3 3 3 3 4 4 4 4 4 4 4 4 4 5 5 6 4 4 5 6 6 6 7 8 7 7 6 6 6 6 6 6
1 1 1 1 1 1 1 1 1 2 2 3 3 3 3 3 3 3 4 3 3 3 3 3 3 3 4 5 4 4 4 5 5 6 6 6 6 6 6 6 6 6 6
1 1 0 0 0 1 1 1 1 2 2 2 2 2 2 2 2 2 2 2 2 2 2 1 1 2 2 2 2 2 1 2 3 4 4 4 5 5 6 6 6 6 6
Wind_Direction
196 194 191 192 192 186 189 194 186 175 169 168 165 160 158 162 154 146 162 152 146 136 140 169 214 197 163 160 161 155 153 142 145 123 71 89 94 98 90 89 87 86 90
194 189 194 189 183 186 192 190 175 172 172 169 162 163 171 171 156 150 164 149 148 174 177 143 158 138 120 133 148 158 159 153 146 145 122 108 96 112 101 95 93 93 95
182 186 195 192 186 191 191 182 172 169 167 162 163 174 180 173 166 169 173 163 155 161 155 161 181 142 142 146 146 149 151 143 131 141 138 117 105 114 101 91 87 85 97
176 187 195 197 193 194 186 176 173 171 168 170 175 179 181 179 174 175 174 166 153 139 150 194 197 182 183 173 157 147 140 133 131 136 136 136 127 121 125 125 108 89 94
180 190 197 193 187 182 179 175 173 173 176 174 174 177 183 185 188 184 181 178 174 176 173 251 231 203 184 179 169 160 151 144 144 144 147 149 154 159 168 157 147 130 86
184 194 190 182 182 182 182 174 170 173 175 173 181 182 189 201 195 190 181 180 183 189 206 256 279 241 198 189 178 169 163 162 167 165 170 176 183 179 166 162 153 158 184
187 188 184 180 184 186 180 171 177 182 179 180 187 188 199 209 201 196 188 178 178 191 193 205 239 235 190 178 173 172 177 178 174 175 178 188 184 183 173 174 179 180 188
187 187 184 182 185 181 175 180 184 179 182 191 196 199 201 212 197 197 189 177 181 204 207 208 219 234 199 175 167 168 178 186 190 188 193 197 188 179 178 176 169 145 105
188 190 189 185 186 184 188 193 185 179 186 192 193 199 206 219 200 194 182 177 194 227 235 223 215 220 201 174 166 173 183 206 187 170 172 172 169 167 161 147 151 161 182
200 199 193 189 190 193 195 193 186 186 194 191 199 205 208 215 204 193 182 183 200 226 239 236 219 210 194 177 179 178 191 205 174 156 152 153 161 168 172 177 176 178 180
193 189 188 192 196 195 189 184 179 184 186 195 208 217 216 216 213 203 192 195 203 214 228 236 231 208 199 192 189 196 205 190 172 170 168 167 168 179 190 194 192 190 192
174 183 190 192 196 190 182 182 178 180 188 199 210 227 228 219 210 211 207 209 205 210 225 228 223 205 205 204 200 204 191 174 169 171 181 192 196 202 205 202 202 206 212
180 190 198 191 191 189 191 189 186 188 197 206 212 224 235 227 219 215 215 213 208 214 225 222 220 209 204 208 211 198 184 182 181 192 206 215 214 208 193 191 197 201 209
184 196 201 201 199 197 195 193 194 198 202 206 214 224 229 229 228 219 218 214 208 213 225 223 219 212 207 213 208 202 202 201 198 206 213 218 205 193 193 192 194 195 205
175 189 197 207 207 202 201 202 207 214 209 206 213 214 214 229 229 211 204 209 206 205 188 193 212 214 220 224 223 214 206 205 211 213 211 210 210 208 207 197 195 192 204
184 208 213 213 209 205 207 225 229 225 224 218 213 209 221 224 213 207 208 208 200 180 172 207 222 225 227 226 224 225 219 217 218 215 214 214 216 216 214 205 200 204 213
203 213 214 212 212 212 212 216 230 243 229 222 220 213 212 212 204 202 203 194 187 174 194 218 226 232 233 229 225 223 225 225 220 216 217 217 217 218 215 213 210 212 219
234 228 220 219 220 215 218 221 220 217 228 245 232 219 213 202 195 193 182 160 185 197 217 226 231 233 234 231 228 228 229 224 220 220 218 217 214 214 216 217 216 217 218
253 254 241 229 229 225 223 220 219 216 217 227 238 236 222 202 188 183 170 192 210 219 225 231 233 232 232 231 229 226 224 223 221 219 220 216 213 214 220 222 221 218 215
256 248 236 221 228 227 222 220 218 214 210 208 216 225 199 183 204 206 207 219 225 230 231 234 236 237 235 233 230 226 225 226 223 222 223 219 214 215 223 226 223 219 218
242 242 228 220 219 219 221 221 219 218 217 212 221 216 195 206 214 217 220 226 231 234 234 235 237 237 235 232 227 225 226 228 225 222 221 220 218 219 223 223 224 224 224
226 234 231 226 227 224 222 214 212 218 222 223 224 212 194 209 220 226 229 233 235 237 236 233 234 235 231 226 222 221 224 229 227 224 224 223 221 223 221 221 223 221 222
221 226 237 245 239 217 216 214 212 223 229 230 225 219 211 226 234 237 241 243 242 242 239 234 239 243 239 229 221 218 220 226 225 221 221 221 221 222 220 219 220 220 220
199 221 233 251 261 240 224 229 224 229 236 239 235 232 231 230 235 241 247 250 245 244 240 233 234 242 244 239 233 229 230 231 226 223 217 216 216 216 215 218 221 222 223
173 212 229 234 246 255 240 235 238 243 248 246 240 235 234 237 248 256 252 249 244 242 244 241 246 250 250 242 239 243 241 225 219 221 213 212 213 212 212 215 219 223 221
143 159 208 242 261 247 232 229 242 253 254 257 255 246 238 236 245 266 271 273 263 257 261 264 274 262 257 248 246 255 235 215 214 212 210 209 212 216 215 219 219 219 221
Height
1523 1525 1526 1528 1530 1531 1532 1533 1534 1535 1536 1536 1537 1536 1536 1535 1535 1534 1533 1532 1531 1531 1530 1530 1530 1531 1531 1531 1531 1532 1532 1533 1533 1534 1535 1536 1536 1537 1537 1537 1538 1538 1538
1520 1522 1524 1526 1527 1529 1530 1531 1532 1533 1534 1534 1534 1534 1534 1534 1533 1532 1532 1531 1530 1529 1529 1529 1529 1529 1529 1529 1530 1530 1530 1531 1531 1532 1533 1534 1535 1536 1536 1537 1537 1538 1538
1517 1519 1521 1523 1524 1526 1527 1528 1529 1530 1531 1532 1532 1532 1532 1532 1532 1531 1531 1530 1529 1528 1528 1528 1527 1527 1527 1527 1528 1528 1529 1529 1530 1530 1531 1533 1534 1535 1535 1536 1537 1537 1538
1514 1516 1517 1520 1522 1523 1525 1526 1527 1528 1529 1529 1530 1530 1530 1530 1530 1530 1529 1529 1528 1527 1527 1527 1526 1526 1526 1526 1526 1526 1527 1527 1528 1529 1530 1531 1532 1533 1534 1535 1535 1537 1537
1511 1513 1515 1517 1519 1520 1522 1523 1524 1525 1526 1527 1527 1527 1528 1528 1528 1528 1528 1527 1527 1526 1526 1525 1525 1525 1524 1524 1524 1525 1525 1526 1527 1528 1529 1530 1531 1531 1532 1533 1534 1535 1536
1508 1510 1512 1514 1516 1517 1518 1519 1520 1522 1523 1524 1524 1524 1525 1525 1525 1525 1525 1525 1525 1525 1524 1524 1524 1523 1523 1523 1523 1523 1524 1524 1525 1526 1527 1528 1528 1530 1531 1532 1533 1534 1535
1506 1507 1509 1511 1513 1514 1515 1516 1518 1519 1520 1520 1521 1521 1522 1522 1523 1523 1523 1523 1523 1523 1522 1522 1522 1522 1522 1522 1521 1521 1522 1523 1524 1525 1525 1526 1527 1528 1529 1530 1531 1533 1533
1502 1504 1506 1508 1509 1511 1512 1513 1514 1515 1516 1517 1517 1518 1519 1519 1520 1520 1521 1521 1520 1520 1520 1520 1520 1520 1520 1520 1520 1520 1520 1521 1522 1523 1523 1524 1525 1527 1528 1529 1530 1531 1532
1499 1501 1503 1505 1506 1507 1508 1509 1510 1512 1513 1513 1514 1515 1515 1516 1516 1517 1518 1518 1518 1518 1518 1517 1517 1517 1517 1518 1518 1518 1519 1519 1520 1520 1521 1523 1524 1525 1525 1526 1527 1529 1529
1496 1498 1500 1501 1503 1504 1505 1506 1507 1508 1509 1510 1511 1511 1512 1512 1513 1514 1515 1514 1515 1515 1515 1515 1514 1514 1515 1515 1515 1516 1516 1517 1518 1518 1519 1520 1521 1522 1523 1525 1525 1526 1527
1494 1496 1497 1498 1499 1500 1501 1503 1504 1505 1506 1506 1507 1508 1508 1509 1509 1510 1510 1511 1511 1511 1512 1512 1511 1511 1512 1512 1512 1513 1514 1515 1515 1516 1517 1518 1519 1520 1521 1522 1523 1524 1525
1491 1492 1493 1495 1496 1497 1498 1499 1500 1501 1502 1502 1503 1503 1504 1505 1506 1506 1507 1508 1508 1508 1508 1508 1508 1508 1508 1509 1509 1510 1511 1512 1512 1513 1514 1515 1516 1517 1518 1520 1521 1522 1523
1488 1489 1490 1491 1492 1493 1494 1495 1496 1497 1498 1498 1499 1499 1500 1501 1501 1502 1503 1503 1504 1504 1504 1504 1505 1505 1505 1505 1506 1507 1507 1508 1509 1509 1510 1511 1513 1514 1515 1516 1518 1519 1519
1485 1485 1487 1487 1488 1489 1490 1491 1491 1492 1493 1494 1495 1495 1495 1496 1497 1498 1498 1499 1499 1499 1500 1500 1501 1501 1501 1501 1502 1503 1503 1504 1505 1506 1506 1508 1509 1510 1511 1512 1513 1515 1515
1481 1481 1482 1483 1484 1484 1485 1486 1487 1488 1489 1489 1490 1490 1491 1491 1492 1493 1493 1494 1494 1495 1495 1495 1495 1496 1496 1497 1497 1498 1499 1499 1500 1501 1502 1503 1504 1505 1507 1508 1509 1510 1511
1477 1478 1478 1479 1480 1480 1481 1482 1482 1483 1484 1485 1485 1486 1486 1488 1488 1488 1489 1490 1490 1490 1490 1490 1490 1491 1491 1492 1492 1493 1493 1494 1495 1496 1497 1498 1499 1500 1501 1503 1504 1505 1506
1474 1474 1475 1475 1476 1476 1477 1477 1477 1478 1479 1480 1481 1481 1482 1483 1484 1484 1485 1485 1485 1485 1485 1485 1485 1486 1486 1486 1487 1487 1488 1489 1490 1491 1492 1493 1494 1495 1496 1497 1498 1499 1500
1470 1471 1471 1471 1471 1472 1472 1473 1473 1474 1474 1475 1476 1477 1477 1478 1479 1480 1480 1480 1480 1480 1479 1480 1480 1481 1481 1481 1482 1482 1483 1484 1484 1485 1486 1487 1488 1489 1490 1491 1492 1493 1495
1466 1466 1467 1467 1468 1468 1468 1469 1469 1470 1470 1471 1471 1472 1473 1474 1474 1475 1475 1475 1474 1474 1475 1475 1475 1476 1476 1476 1477 1477 1478 1478 1479 1479 1480 1481 1482 1483 1483 1485 1486 1487 1489
1462 1463 1463 1463 1464 1464 1464 1464 1465 1466 1466 1466 1467 1468 1469 1469 1469 1469 1469 1469 1470 1470 1470 1470 1471 1471 1471 1471 1472 1472 1473 1473 1474 1474 1475 1475 1476 1477 1478 1479 1480 1481 1483
1458 1459 1459 1460 1460 1460 1461 1461 1461 1462 1462 1461 1462 1463 1464 1464 1464 1464 1465 1465 1465 1465 1465 1466 1466 1466 1466 1466 1466 1467 1467 1468 1468 1469 1469 1470 1471 1471 1472 1473 1474 1475 1477
1455 1455 1455 1456 1456 1457 1457 1457 1457 1458 1458 1458 1458 1459 1459 1459 1460 1460 1460 1460 1461 1461 1461 1461 1461 1461 1461 1461 1461 1461 1461 1462 1463 1463 1464 1465 1465 1466 1467 1467 1468 1470 1471
1451 1452 1452 1452 1453 1453 1453 1453 1453 1453 1454 1454 1454 1454 1454 1455 1455 1455 1455 1456 1456 1456 1456 1456 1456 1456 1456 1456 1456 1455 1456 1456 1458 1458 1459 1459 1460 1460 1461 1462 1463 1464 1465
1448 1449 1449 1449 1449 1449 1449 1450 1449 1449 1450 1450 1450 1450 1450 1451 1451 1451 1451 1451 1451 1451 1451 1451 1451 1451 1451 1451 1451 1451 1451 1451 1452 1453 1453 1454 1454 1455 1456 1457 1457 1459 1460
1446 1446 1447 1447 1447 1447 1446 1446 1446 1446 1446 1447 1447 1447 1447 1447 1447 1447 1447 1447 1447 1447 1447 1446 1446 1446 1446 1446 1445 1445 1445 1446 1446 1447 1447 1448 1449 1449 1450 1451 1452 1453 1454
1444 1444 1445 1445 1444 1444 1444 1443 1443 1443 1444 1444 1443 1443 1443 1443 1443 1443 1443 1443 1443 1443 1442 1442 1442 1442 1441 1441 1441 1440 1440 1440 1441 1441 1442 1442 1443 1443 1445 1446 1447 1448 1449